{"data":{"norad_id":63052,"intl_designator":"2025-035A","name":"STARLINK-11550 [DTC]","alt_names":[],"object_type":"PAYLOAD","status":"ACTIVE","operator":null,"country":"US","launch_date":"2025-02-21","launch_site_code":"AFETR","launch_vehicle":null,"mission":null,"orbit_class":"UNKNOWN","rcs_meters":null,"size_class":null,"mass_kg":null,"dimensions":null,"purposes":["comms"],"wikipedia_slug":null,"has_3d_model":false,"image_url":null,"decayed_at":null,"tle_current":{"epoch":"2026-09-21T08:06:04.296672Z","epoch_age_seconds":93241,"freshness":"FRESH","line1":"1 63052U 25035A   26264.33754973  .00127366  00000+0  98068-3 0  9990","line2":"2 63052  42.9997 275.8265 0000586 212.0649 148.0183 15.70846740 91991","mean_motion":15.7084674,"eccentricity":5.86e-5,"inclination_deg":42.9997,"raan_deg":275.8265,"arg_perigee_deg":212.0649,"mean_anomaly_deg":148.0183,"bstar":0.00098068,"rev_number":9199,"period_min":91.670305150202,"perigee_km":356.0811491461,"apogee_km":356.87044576596,"semimajor_km":6734.612797456,"source":"CELESTRAK","updated_at":"2026-09-22T09:00:49.749060Z"}}}